Nellis AFB, NV

7:22 PM PST on December 14, 2019 (GMT -0800)
Nellis Air Force Base

Weather History for KLSV - September, 2019

Change the Weather History Date:

Wednesday, September 4, 2019

  Actual Average Record
Temperature  
Mean Temperature 94 °F -  
Max Temperature 107 °F 96 °F 107 °F (2010)
Min Temperature 81 °F 71 °F 64 °F (2000)
Cooling Degree Days 29    
Growing Degree Days 44 (Base 50)    
Moisture  
Dew Point 48 °F    
Average Humidity 21    
Maximum Humidity 31    
Minimum Humidity 12    
Precipitation  
Precipitation 0.00 in - - ()
Sea Level Pressure  
Sea Level Pressure 29.78 in    
Wind  
Wind Speed 4 mph (ESE)    
Max Wind Speed 22 mph    
Max Gust Speed 33 mph    
Visibility 10 miles    
Events Rain    
Averages and records for this station are not official NWS values.
T = Trace of Precipitation, MM = Missing Value Source: NWS Daily Summary

Daily Weather History Graph

Daily Weather History Graph

Search for Another Location

Airport or City:

Astronomy

Sep. 04, 2019 Rise Set
Actual Time 6:13 AM PDT 7:03 PM PDT
Civil Twilight 5:47 AM PDT 7:29 PM PDT
Nautical Twilight 5:16 AM PDT 8:00 PM PDT
Astronomical Twilight 4:44 AM PDT 8:32 PM PDT
Moon 12:09 PM PDT (9/4) 10:52 PM PDT (9/4)
Length of Visible Light 13h 42m
Length of Day
12h 49m
Waxing Crescent, 36% of the Moon is Illuminated
Sep 4
Waxing Crescent
Sep 5
First Quarter
Sep 13
Full
Sep 21
Last Quarter
Sep 28
New

Hourly Weather History & Observations

Time (PDT) Temp. Dew Point Humidity Pressure Visibility Wind Dir Wind Speed Gust Speed Precip Events Conditions
12:58 AM 86.7 °F 47.7 °F 26% 29.77 in 10.0 mi Calm Calm - N/A   Partly Cloudy
1:58 AM 88.5 °F 49.3 °F 26% 29.77 in 10.0 mi SW 6.9 mph - N/A   Partly Cloudy
2:58 AM 86.0 °F 49.1 °F 28% 29.77 in 10.0 mi Calm Calm - N/A   Partly Cloudy
3:58 AM 83.7 °F 48.0 °F 29% 29.78 in 10.0 mi North 4.6 mph - N/A   Scattered Clouds
4:58 AM 81.1 °F 47.7 °F 31% 29.79 in 10.0 mi NE 3.5 mph - N/A   Mostly Cloudy
5:58 AM 81.3 °F 47.8 °F 31% 29.80 in 10.0 mi North 3.5 mph - N/A   Scattered Clouds
6:58 AM 81.1 °F 47.7 °F 31% 29.81 in 10.0 mi Calm Calm - N/A   Clear
7:58 AM 86.0 °F 50.0 °F 29% 29.82 in 10.0 mi Calm Calm - N/A   Clear
8:58 AM 89.6 °F 50.2 °F 26% 29.84 in 10.0 mi Calm Calm - N/A   Clear
9:58 AM 94.3 °F 49.5 °F 22% 29.84 in 10.0 mi Calm Calm - N/A   Clear
10:58 AM 99.3 °F 49.6 °F 19% 29.83 in 10.0 mi Calm Calm - N/A   Clear
11:58 AM 102.6 °F 49.3 °F 17% 29.81 in 10.0 mi ESE 5.8 mph - N/A   Clear
12:58 PM 103.8 °F 50.4 °F 17% 29.79 in 10.0 mi East 8.1 mph - N/A   Clear
1:58 PM 106.3 °F 43.2 °F 12% 29.75 in 10.0 mi ESE 5.8 mph - N/A   Partly Cloudy
2:58 PM 106.0 °F 46.9 °F 14% 29.72 in 10.0 mi SSE 9.2 mph - N/A   Partly Cloudy
3:58 PM 107.2 °F 45.9 °F 13% 29.70 in 10.0 mi Calm Calm - N/A   Clear
4:58 PM 107.2 °F 45.9 °F 13% 29.70 in 10.0 mi SE 8.1 mph - N/A   Clear
5:58 PM 105.6 °F 44.6 °F 13% 29.70 in 10.0 mi SSE 10.4 mph - N/A   Mostly Cloudy
6:58 PM 104.4 °F 45.7 °F 14% 29.72 in 10.0 mi East 11.5 mph - N/A   Mostly Cloudy
7:58 PM 100.4 °F 47.7 °F 17% 29.76 in 10.0 mi South 21.9 mph 33.4 mph N/A   Mostly Cloudy
8:58 PM 97.5 °F 49.6 °F 20% 29.79 in 10.0 mi South 11.5 mph - N/A   Scattered Clouds
9:58 PM 95.2 °F 49.1 °F 21% 29.79 in 10.0 mi ENE 5.8 mph - N/A   Clear
10:58 PM 96.1 °F 49.8 °F 21% 29.79 in 10.0 mi Calm Calm - N/A   Mostly Cloudy
11:58 PM 92.5 °F 49.3 °F 23% 29.82 in 10.0 mi ENE 6.9 mph - N/A   Mostly Cloudy
11:59 PM 91.4 °F 50.0 °F 24% 29.82 in 10.0 mi ENE 5.8 mph - N/A Rain Light Rain